Regional Weather Roundup
Issued by NWS Mobile, AL

Home | Current Version | Previous Version | Text Only | Print | Product List | Glossary On
Versions: 1 2 3 4 5 6 7 8 9 10 11 12 13 14 15 16 17 18 19 20 21 22 23 24 25 26 27 28 29 30 31 32 33 34 35 36 37 38 39 40 41 42 43 44 45 46 47 48 49 50
000
ASUS44 KMOB 251112
RWRMOB
REGIONAL WEATHER ROUNDUP
NATIONAL WEATHER SERVICE MOBILE AL
600 AM CDT THU MAY 25 2017

NOTE: "FAIR" INDICATES FEW OR NO CLOUDS BELOW 12,000 FEET WITH NO
      SIGNIFICANT WEATHER AND/OR OBSTRUCTIONS TO VISIBILITY.

  * THESE STATIONS ARE PART OF THE UNIVERSITY OF SOUTH ALABAMA
    MESONET AND ARE NOT UNDER NWS OR FAA QUALITY CONTROL.

ALZ061>064-251200-
COASTAL ALABAMA

CITY           SKY/WX    TMP DP  RH WIND       PRES   REMARKS
MOBILE REG APT PTCLDY    55  51  86 SW3       29.83R
BROOKLEY FIELD CLEAR     59  53  80 W5        29.84R
USA CAMPUS*      N/A     55  52  88 CALM      29.83R
DOG RIVER*       N/A     57  54  88 W3        30.52R


CITY           SKY/WX    TMP DP  RH WIND       PRES   REMARKS
GULF SHORES    CLEAR     60  54  82 CALM      29.82R

$$

ALZ051>060-251200-
INTERIOR SOUTHWEST AND SOUTH CENTRAL ALABAMA

CITY           SKY/WX    TMP DP  RH WIND       PRES   REMARKS
GREENVILLE     CLEAR     54  50  86 SW5       29.78R
EVERGREEN      CLEAR     55  51  86 SW3       29.80R
ATMORE*          N/A     55  54  94 W3        29.83R
ANDALUSIA/OPP  CLEAR     58  52  80 W5        29.79R
ANDALUSIA*       N/A     54  52  94 W3        29.80R
FLORALA APT    CLEAR     55  51  86 CALM      29.81R
FLORALA*         N/A     55  52  88 CALM      30.43R

$$

FLZ001>006-251200-
WESTERN FLORIDA PANHANDLE

CITY           SKY/WX    TMP DP  RH WIND       PRES   REMARKS
PENSACOLA      CLEAR     61  51  70 W6        29.81R
NAS PENSACOLA  PTCLDY    61  51  70 CALM      29.82R
MILTON         PTCLDY    55  52  89 NW5       29.81R
WHTNG S FIELD  CLEAR     58  53  84 NW3       29.81R


CITY           SKY/WX    TMP DP  RH WIND       PRES   REMARKS
JAY*             N/A     55  52  88 W3        29.81S
DUKE FIELD     CLEAR     58  51  78 W6        29.80R
CRESTVIEW      CLEAR     57  51  80 W5        29.81R
VALPARAISO     PTCLDY    60  50  69 NW9       29.80R
DESTIN         CLEAR     66  57  72 NW8G16    29.80R

$$

MSZ076-079-251200-
INTERIOR SOUTHEAST MISSISSIPPI

CITY           SKY/WX    TMP DP  RH WIND       PRES   REMARKS
LEAKESVILLE*   NOT AVBL
AGRICOLA*        N/A     54  52  94 CALM      29.81S

$$

MARINE OBSERVATIONS

STATION/POSITION TIME  TEMP    WIND        PRES    WAVE
                       AIR SEA DIR/SP/G            HT/PER
                 (UTC) (F)     (DEG/KT/KT) (MB)    (FT/S)
PASCAGOULA       1048   63     300/  5/  7 1009.6R
PETIT BOIS ISLND 1048   68     310/ 10/ 12 1010.5R
GRAND BAY        0930   61     290/  4     1010.0S
KATRINA CUT      1030   69     310/ 15     1009.1R
CEDAR POINT      1030   66     310/ 10     1009.1R
E DAUPHIN ISLAND 1000   67     300/ 12/ 14 1009.2R
MIDDLE BAY LIGHT 1030   66     270/ 13     1009.1R
USCG MOBILE BAY  1048   60 77  270/  4/  5 1010.5R
STATE DOCKS      1042   59 78              1009.6R
MEAHER PARK      1030   62     310/  5     1009.1S
FORT MORGAN      1048   68     310/ 14/ 16   N/A
12 S ORANGE BCH  1050   70 76  320/ 17/ 23 1009.0R   4/ 7
PENSACOLA BAY    1042   62 79              1009.7R
64 S DAUPHIN ISL 1050   73 77  290/ 16/ 21 1010.1R   4/ 5
67 S FORT MORGAN 1030   72        CALM     1009.5R

$$

SELECTED LOCATIONS ACROSS THE REGION

CITY           SKY/WX    TMP DP  RH WIND       PRES   REMARKS
NEW ORLEANS    CLEAR     58  56  93 SW6       29.84R
GULFPORT       PTCLDY    55  53  93 CALM      29.83R
PASCAGOULA AP  CLEAR     54  52  93 CALM      29.83R
PASCAGOULA*    NOT AVBL
HATTIESBURG    CLEAR     53  50  89 CALM      29.83R
LAUREL         NOT AVBL
MERIDIAN       CLEAR     52  51  97 S3        29.81R
JACKSON        CLEAR     52  50  93 CALM      29.81R
MONTGOMERY     CLEAR     57  51  80 SW5       29.78R
TROY           CLEAR     55  54  96 SW3       29.79R
ASHFORD*         N/A     54  52  94 W3        29.80R
DOTHAN         CLEAR     58  54  86 W8        29.81R
PANAMA CITY    CLEAR     58  52  80 CALM      29.79R

$$




USA.gov is the U.S. government's official web portal to all federal, state and local government web resources and services.